Ozark, AL

12:39 AM CST on January 24, 2018 (GMT -0600)
Cairns Army Air Field

Weather History for KOZR - January, 2013

Change the Weather History Date:

Tuesday, January 1, 2013

  Actual Average Record
Temperature  
Mean Temperature 62 °F -  
Max Temperature 75 °F 59 °F 75 °F (2013)
Min Temperature 50 °F 38 °F 24 °F (1998)
Degree Days  
Heating Degree Days 2    
Growing Degree Days 12 (Base 50)    
Moisture  
Dew Point 59 °F    
Average Humidity 84    
Maximum Humidity 100    
Minimum Humidity 57    
Precipitation  
Precipitation 0.10 in - - ()
Sea Level Pressure  
Sea Level Pressure 30.00 in    
Wind  
Wind Speed 7 mph (SSW)    
Max Wind Speed 17 mph    
Max Gust Speed 24 mph    
Visibility 9 miles    
Events Rain    
Averages and records for this station are not official NWS values.
T = Trace of Precipitation, MM = Missing Value Source: NWS Daily Summary

Daily Weather History Graph

Daily Weather History Graph

Search for Another Location

Airport or City:

Trip Planner

Search our weather history database for the weather conditions in past years. The results will help you decide how hot, cold, wet, or windy it might be!

Date:

Astronomy

Jan. 01, 2013 Rise Set
Actual Time 6:41 AM CST 4:51 PM CST
Civil Twilight 6:15 AM CST 5:18 PM CST
Nautical Twilight 5:44 AM CST 5:48 PM CST
Astronomical Twilight 5:15 AM CST 6:17 PM CST
Moon 9:03 PM CST (1/1) 9:09 AM CST (1/1)
Length of Visible Light 11h 03m
Length of Day
10h 09m
Waning Gibbous, 83% of the Moon is Illuminated
Jan 1
Waning Gibbous
Jan 4
Last Quarter
Jan 11
New
Jan 18
First Quarter
Jan 26
Full

Hourly Weather History & Observations

Time (CST) Temp. Dew Point Humidity Pressure Visibility Wind Dir Wind Speed Gust Speed Precip Events Conditions
12:31 AM 53.6 °F 50.0 °F 88% 30.14 in 10.0 mi Calm Calm - N/A   Overcast
12:55 AM 53.2 °F 49.5 °F 87% 30.13 in 10.0 mi SE 4.6 mph - N/A   Overcast
1:55 AM 53.1 °F 50.0 °F 89% 30.11 in 10.0 mi SSE 4.6 mph - N/A   Overcast
2:55 AM 52.0 °F 49.5 °F 91% 30.10 in 10.0 mi Calm Calm - N/A   Scattered Clouds
3:55 AM 51.8 °F 49.8 °F 93% 30.07 in 10.0 mi SE 4.6 mph - N/A   Clear
4:55 AM 52.2 °F 50.2 °F 93% 30.07 in 10.0 mi South 4.6 mph - N/A   Clear
5:55 AM 51.8 °F 50.4 °F 95% 30.06 in 9.0 mi South 3.5 mph - N/A   Clear
6:55 AM 50.7 °F 49.5 °F 95% 30.06 in 6.0 mi SSE 3.5 mph - N/A   Clear
7:55 AM 54.9 °F 53.6 °F 96% 30.06 in 7.0 mi SSE 5.8 mph - N/A   Clear
8:55 AM 62.1 °F 56.7 °F 82% 30.07 in 10.0 mi South 9.2 mph - N/A   Clear
9:55 AM 67.8 °F 56.8 °F 68% 30.07 in 10.0 mi South 11.5 mph - N/A   Clear
10:55 AM 72.5 °F 57.4 °F 59% 30.04 in 10.0 mi SSW 15.0 mph 21.9 mph N/A   Clear
11:55 AM 74.7 °F 59.4 °F 59% 30.01 in 10.0 mi South 10.4 mph 20.7 mph N/A   Partly Cloudy
12:55 PM 75.4 °F 59.4 °F 57% 29.98 in 10.0 mi SSW 17.3 mph 24.2 mph N/A   Mostly Cloudy
1:55 PM 74.1 °F 60.4 °F 62% 29.97 in 10.0 mi SSW 11.5 mph - N/A   Overcast
2:55 PM 72.1 °F 60.3 °F 66% 29.96 in 10.0 mi SSW 9.2 mph - N/A   Overcast
3:55 PM 71.6 °F 60.6 °F 68% 29.96 in 10.0 mi SSW 10.4 mph - N/A   Overcast
4:55 PM 70.0 °F 60.8 °F 73% 29.96 in 10.0 mi South 10.4 mph - N/A   Overcast
5:00 PM 69.8 °F 60.8 °F 73% 29.96 in 10.0 mi SSW 11.5 mph - N/A   Overcast
5:02 PM 69.8 °F 60.8 °F 73% 29.96 in 10.0 mi South 10.4 mph - N/A   Overcast
5:47 PM 68.0 °F 60.8 °F 78% 29.96 in 10.0 mi SSW 10.4 mph - N/A   Mostly Cloudy
5:55 PM 68.7 °F 61.0 °F 76% 29.96 in 10.0 mi SSW 9.2 mph - N/A   Overcast
6:39 PM 68.0 °F 60.8 °F 78% 29.97 in 10.0 mi SSW 8.1 mph - N/A   Overcast
6:41 PM 68.0 °F 60.8 °F 78% 29.97 in 10.0 mi SSW 10.4 mph - N/A   Overcast
6:43 PM 68.0 °F 60.8 °F 78% 29.97 in 10.0 mi SW 10.4 mph - N/A   Light Drizzle
6:55 PM 66.6 °F 62.8 °F 88% 29.97 in 5.0 mi South 10.4 mph 16.1 mph 0.01 in Rain Light Rain
7:13 PM 66.2 °F 62.6 °F 88% 29.97 in 10.0 mi South 5.8 mph - N/A Rain Light Rain
7:27 PM 66.2 °F 62.6 °F 88% 29.98 in 10.0 mi SW 8.1 mph - N/A   Overcast
7:55 PM 65.5 °F 63.7 °F 94% 29.97 in 10.0 mi SSW 6.9 mph - 0.00 in   Overcast
7:58 PM 66.2 °F 64.4 °F 94% 29.97 in 10.0 mi SSW 6.9 mph - N/A   Overcast
8:00 PM 66.2 °F 64.4 °F 94% 29.97 in 10.0 mi SSW 8.1 mph - N/A   Overcast
8:55 PM 66.2 °F 64.4 °F 94% 29.96 in 10.0 mi South 8.1 mph - N/A   Overcast
9:15 PM 66.2 °F 64.4 °F 94% 29.96 in 10.0 mi SSW 9.2 mph - N/A   Overcast
9:55 PM 66.7 °F 64.9 °F 94% 29.96 in 10.0 mi South 9.2 mph - N/A   Overcast
10:11 PM 66.2 °F 64.4 °F 94% 29.96 in 10.0 mi South 8.1 mph - N/A   Overcast
10:55 PM 66.9 °F 65.5 °F 95% 29.95 in 10.0 mi SSW 9.2 mph - N/A   Overcast
11:14 PM 66.2 °F 66.2 °F 100% 29.95 in 10.0 mi SSW 8.1 mph - N/A   Light Drizzle
11:26 PM 66.2 °F 66.2 °F 100% 29.95 in 5.0 mi SSW 8.1 mph - N/A Rain Light Rain
11:52 PM 64.4 °F 64.4 °F 100% 29.95 in 3.0 mi WNW 10.4 mph - N/A Rain Rain
11:54 PM 64.4 °F 62.6 °F 94% 29.95 in 3.0 mi WNW 6.9 mph - N/A Rain Rain
11:55 PM 64.8 °F 63.3 °F 95% 29.95 in 3.0 mi West 6.9 mph - 0.09 in Rain Rain